User: anonymous   Login
Location: Homewood
(41.1836°S, 175.9581°E)
Time: 11:14:46
(UTC+00:00)
Language:

CZ-2C R/B - Orbit

View from above orbital plane
View from above orbital plane
View from above satellite
View from above satellite

Ground track
Ground track

The orbit data is extracted from the following two-line orbital elements,

1 28222U 04012C   24171.91446169  .00010839  00000-0  41345-3 0  9999
2 28222  97.8022 185.0116 0035147  43.5229 316.8772 15.26280953107512
Epoch (UTC): 19 June 2024 21:56:49
Eccentricity: 0.0035147
inclination: 97.8022°
perigee height: 463 km
apogee height: 511 km
right ascension of ascending node: 185.0116°
argument of perigee: 43.5229°
revolutions per day: 15.26280953
mean anomaly at epoch: 316.8772°
orbit number at epoch: 10751

The dashed part of the orbit path shows where the satellite is in the earth's shadow,  

DLR